Regional Weather Roundup
Issued by NWS

Home | Current Version | Previous Version | Graphics & Text | Print | Product List | Glossary On
Versions: 1 2 3 4 5 6 7 8 9 10 11 12 13 14 15 16 17 18 19 20 21 22 23 24 25 26 27 28 29 30 31 32 33 34 35 36 37 38 39 40 41 42 43 44 45 46 47 48 49 50
000
ASUS43 KLSX 142257
RWRMO

WEATHER SUMMARY FOR MISSOURI
NATIONAL WEATHER SERVICE SPRINGFIELD MO
500 PM CST THU DEC 14 2017

NOTE: "FAIR" INDICATES FEW OR NO CLOUDS BELOW 12,000 FEET WITH NO
       SIGNIFICANT WEATHER AND/OR OBSTRUCTIONS TO VISIBILITY.
       CURRENT SKY AND/OR WEATHER CONDITIONS ARE NOT AVAILABLE FOR
       CHILLICOTHE AND FARMINGTON.

MOZ001>031-035>038-043-044-053-054-150000-
...NORTHERN AND WESTERN MISSOURI...

CITY           SKY/WX    TMP DP  RH WIND       PRES   REMARKS
KANSAS CTY INT CLOUDY    40  24  53 CALM      30.07S
LEE`S SUMMIT   CLOUDY    39  24  55 CALM      30.08R
ST JOSEPH      CLOUDY    40  26  57 NW6       30.08R
CHILLICOTHE      N/A     35  23  61 CALM      30.11R

$$
MOZ066>068-077>081-088>096-101>105-150000-
...SOUTHWEST MISSOURI...

CITY           SKY/WX    TMP DP  RH WIND       PRES   REMARKS
SPRINGFIELD    CLOUDY    37  24  59 N5        30.07S
JOPLIN         CLOUDY    39  28  64 W6        30.10S
BRANSON        CLOUDY    37  23  56 NW10      30.08S

$$
MOZ032>034-039>042-045>050-055>058-069>072-150000-
...CENTRAL MISSOURI...

CITY           SKY/WX    TMP DP  RH WIND       PRES   REMARKS
COLUMBIA       NOT AVBL
JEFFERSON CITY CLOUDY    34  21  59 CALM      30.11R
ROLLA          CLOUDY    33  21  61 NW6       30.08R WCI  28
SEDALIA        CLOUDY    35  25  66 CALM      30.11R
WARRENSBURG    CLOUDY    36  25  64 CALM      30.09S

$$
MOZ051-052-059>065-150000-
...EAST CENTRAL MISSOURI...

CITY           SKY/WX    TMP DP  RH WIND       PRES   REMARKS
ST LOUIS INTL  CLOUDY    31  19  61 NW7       30.09F WCI  24

$$
MOZ072>076-082>087-097>100-106>115-150000-
...SOUTH CENTRAL AND SOUTHEAST MISSOURI...

CITY           SKY/WX    TMP DP  RH WIND       PRES   REMARKS
CAPE GIRARDEAU CLOUDY    33  21  61 N7        30.09F WCI  27
POPLAR BLUFF   CLOUDY    36  25  64 E5        30.08R
WEST PLAINS    CLOUDY    37  20  50 NW10      30.06S WCI  30

$$


USA.gov is the U.S. government's official web portal to all federal, state and local government web resources and services.